AL YAH 3 (43174 NORAD) Tracking and Keplerian Element Data

This shows tracking and keplerian element data for the satellite.

Feedback or suggestion? Click here.




ElementValue
Catalog43174
NameAL YAH 3
Epoch Orbit2054
Epoch Day237.12896656
Epoch Year2023
RAAN96.1744
Inclination0.0866
Eccentricity0.0002156
Argument of Perigee48.2758
Mean Anonmoly214.9948
Mean Motion1.00268786
Decay Rate-1.51E-06
L11 43174U 18012A 23237.12896656 -.00000151 00000+0 00000+0 0 9997
L22 43174 0.0866 96.1744 0002156 48.2758 214.9948 1.00268786 20546



Live tracking and technical data element details for AL YAH 3 (NORAD 43174). AL YAH 3 can be tracked NOW for your location showing map with azimuth and elevation plus other details from your city location.







IsCatalogInMostPopularTable: catalog: 43174, numindb: 944
Update: records affected: 1



GetName: 43174 AL YAH 3

Hit Count: updated at: Mon, 04 Dec 2023 09:18:18 GMT